Location: Go?cza
(50.3372°N, 19.9313°E)
Time: 22:07:45
(UTC+00:00)

Resurs 1-4 Rocket - Pass Details

Date: 23 May 2024
Orbit: 798 x 813 km, 98.7° (Epoch: 21 June)

Event Time Altitude Azimuth Distance (km) Brightness Sun altitude
Rises 00:24:21 0° 18° (NNE) 3,320 7.1 -15.2°
Reaches altitude 10° 00:26:44 10° 22° (NNE) 2,384 6.0 -15.0°
Maximum altitude 00:31:55 56° 101° (E) 949 2.5 -14.6°
Enters shadow 00:36:02 16° 176° (S) 1,983 3.6 -14.3°
